(205354) = 2000 WT135

Discovered at Anderson Mesa on 2000-11-20 by LONEOS.

Orbit

Orbit type: Main Belt

Note: WebGL enabled browser required.

epoch2024-03-31.0
epoch JD2460400.5
perihelion date2022-12-22.65186
perihelion JD2459936.15186
argument of perihelion (°)295.49881
ascending node (°)90.04085
inclination (°)10.55169
eccentricity0.2638190
perihelion distance (AU)1.7596989
Tisserand w.r.t. Jupiter3.5
ΔV w.r.t. Earth (km/sec)8.8
semimajor axis (AU)2.3903075
mean anomaly (°)123.84170
mean daily motion (°/day)0.26670010
aphelion distance (AU)3.021
period (years)3.7
P-vector [x]0.88702427
P-vector [y]0.46129611
P-vector [z]0.01984540
Q-vector [x]-0.42385626
Q-vector [y]0.79647904
Q-vector [z]0.43123893
absolute magnitude16.32
phase slope0.15
uncertainty0
referenceMPEC 2024-F28
observations used762
oppositions15
arc length (days)11020
first opposition used1994
last opposition used2024
residual rms (arc-secs)0.70
perturbers coarse indicatorM-v
perturbers precise indicator003Ek
first observation date used1994-01-15.0
last observation date used2024-03-18.0
computer nameMPCLINUX
JD of orbit computation2456847.604224
perihelion JD uncertainty (days)3.7004E-05
argument of perihelion uncertainty (°)2.7817E-05
ascending node uncertainty (°)2.6540E-05
inclination uncertainty (°)4.1158E-06
eccentricity uncertainty 5.1300E-08
perihelion distance uncertainty (AU)1.2603E-07
Minimum Orbit Intersection Distances (in AU)
for orbit epoch: 2460400.5, reference: E2024-GF4
Mercury1.42513
Venus1.04386
Earth0.79496
Mars0.36699
Jupiter2.48322
Saturn6.63063
Uranus15.5708
Neptune27.6682

Observations

779 total observations over interval: 1994 01 15.07222 – 2024 03 18.334313
These data are available for download (format description).

Date (UT) J2000 RA J2000 Dec Magn Location Ref
1994 01 15.07222 08 20 12.42 +28 28 30.4 19.4   033 – Karl Schwarzschild Observatory, Tautenburg MPS 123290
1994 01 15.11319 08 20 09.49 +28 28 52.1   033 – Karl Schwarzschild Observatory, Tautenburg MPS 123290
2000 09 10.41622 02 30 51.51 -06 14 38.7 18.1 R 699 – Lowell Observatory-LONEOS MPS 30204
2000 09 10.43557 02 30 52.00 -06 14 44.4   699 – Lowell Observatory-LONEOS MPS 30204
2000 09 10.45482 02 30 52.43 -06 14 50.1   699 – Lowell Observatory-LONEOS MPS 30204
2000 09 10.47415 02 30 52.89 -06 14 54.1   699 – Lowell Observatory-LONEOS MPS 30204
2000 09 26.405000 02 32 59.018 -07 31 20.28 18.25 V 645 – Apache Point-Sloan Digital Sky Survey MPS 79827
2000 09 26.408472 02 32 58.966 -07 31 21.23 18.95   645 – Apache Point-Sloan Digital Sky Survey MPS 79827
2000 09 30.35999 02 31 56.31 -07 48 52.1 17.8 R 699 – Lowell Observatory-LONEOS MPS 25315
2000 09 30.37708 02 31 55.93 -07 48 56.5   699 – Lowell Observatory-LONEOS MPS 25315
2000 09 30.39412 02 31 55.51 -07 49 01.0   699 – Lowell Observatory-LONEOS MPS 25315
2000 09 30.41114 02 31 55.06 -07 49 05.1   699 – Lowell Observatory-LONEOS MPS 25315
2000 10 02.35768 02 31 11.03 -07 56 59.7 17.6 R 699 – Lowell Observatory-LONEOS MPS 24004
2000 10 02.37928 02 31 10.41 -07 57 05.5   699 – Lowell Observatory-LONEOS MPS 24004
2000 10 02.40086 02 31 09.77 -07 57 09.5   699 – Lowell Observatory-LONEOS MPS 24004
2000 10 02.42248 02 31 09.18 -07 57 14.4   699 – Lowell Observatory-LONEOS MPS 24004
2000 10 05.32272 02 29 48.04 -08 07 52.1 17.9   704 – Lincoln Laboratory ETS, New Mexico MPS 24004
2000 10 05.33765 02 29 47.56 -08 07 55.3 18.3   704 – Lincoln Laboratory ETS, New Mexico MPS 24004
2000 10 05.35274 02 29 46.99 -08 07 58.4 18.2   704 – Lincoln Laboratory ETS, New Mexico MPS 24004
2000 10 05.36894 02 29 46.38 -08 08 01.6 18.8   704 – Lincoln Laboratory ETS, New Mexico MPS 24004
2000 10 05.38383 02 29 45.91 -08 08 04.1 18.3   704 – Lincoln Laboratory ETS, New Mexico MPS 24004
2000 10 29.28768 02 10 48.16 -08 08 48.5 17.4   704 – Lincoln Laboratory ETS, New Mexico MPS 24004
2000 10 29.30225 02 10 47.32 -08 08 44.4 17.9   704 – Lincoln Laboratory ETS, New Mexico MPS 24004
2000 10 29.31748 02 10 46.45 -08 08 41.1 19.3   704 – Lincoln Laboratory ETS, New Mexico MPS 24004
2000 10 29.33155 02 10 45.65 -08 08 36.6 18.3   704 – Lincoln Laboratory ETS, New Mexico MPS 24004
2000 10 29.34609 02 10 44.75 -08 08 34.3 18.3   704 – Lincoln Laboratory ETS, New Mexico MPS 24004
2000 11 20.21386 01 55 04.94 -05 12 17.0 17.9 R 699 – Lowell Observatory-LONEOS MPS 23006
2000 11 20.22957 01 55 04.52 -05 12 06.0   699 – Lowell Observatory-LONEOS MPS 23006
2000 11 20.24531 01 55 03.97 -05 11 54.6   699 – Lowell Observatory-LONEOS MPS 23006
2000 11 20.26104 01 55 03.58 -05 11 43.9   699 – Lowell Observatory-LONEOS MPS 23006
2000 11 23.32287 01 53 55.89 -04 35 19.5 18.8   608 – Haleakala-AMOS MPS 23006
2000 11 23.33355 01 53 55.64 -04 35 11.8 18.8   608 – Haleakala-AMOS MPS 23006
2000 11 23.34413 01 53 55.41 -04 35 03.9 18.8   608 – Haleakala-AMOS MPS 23006
2000 11 25.21240 01 53 23.80 -04 11 49.9 18.4   704 – Lincoln Laboratory ETS, New Mexico MPS 24004
2000 11 25.22761 01 53 23.55 -04 11 38.3 18.4   704 – Lincoln Laboratory ETS, New Mexico MPS 24004
2000 11 25.24283 01 53 23.23 -04 11 27.1 18.0   704 – Lincoln Laboratory ETS, New Mexico MPS 24004
2000 11 25.25805 01 53 22.97 -04 11 16.1 18.6   704 – Lincoln Laboratory ETS, New Mexico MPS 24004
2000 11 25.27329 01 53 22.72 -04 11 04.6 18.0   704 – Lincoln Laboratory ETS, New Mexico MPS 24004
2000 12 19.15321 01 57 44.30 +01 32 58.2 18.8 R 699 – Lowell Observatory-LONEOS MPS 24004
2000 12 19.17659 01 57 45.02 +01 33 19.6   699 – Lowell Observatory-LONEOS MPS 24004
2000 12 19.20006 01 57 45.84 +01 33 40.5   699 – Lowell Observatory-LONEOS MPS 24004
2000 12 19.22355 01 57 46.60 +01 34 02.7   699 – Lowell Observatory-LONEOS MPS 24004
2000 12 19.34584 01 57 51.06 +01 35 58.8 20.1   608 – Haleakala-AMOS MPS 24004
2000 12 19.35633 01 57 51.38 +01 36 09.0 20.6   608 – Haleakala-AMOS MPS 24004
2000 12 19.36690 01 57 51.75 +01 36 18.5 20.8   608 – Haleakala-AMOS MPS 24004
2000 12 20.15953 01 58 20.58 +01 48 31.0 18.7   704 – Lincoln Laboratory ETS, New Mexico MPS 24004
2000 12 20.17462 01 58 21.11 +01 48 44.7 18.3   704 – Lincoln Laboratory ETS, New Mexico MPS 24004
2000 12 20.18984 01 58 21.57 +01 48 59.3 18.6   704 – Lincoln Laboratory ETS, New Mexico MPS 24004
2004 11 13.36182 07 39 17.36 +20 30 15.2 19.1 R 703 – Catalina Sky Survey MPS 123290
2004 11 13.37000 07 39 17.52 +20 30 18.2 19.2 R 703 – Catalina Sky Survey MPS 123290
2004 11 13.37824 07 39 17.75 +20 30 21.2 19.0 R 703 – Catalina Sky Survey MPS 123290
2004 11 13.38641 07 39 17.90 +20 30 23.8 20.3 R 703 – Catalina Sky Survey MPS 123290
2004 12 09.39213 07 36 22.84 +23 32 10.4 17.8 R 703 – Catalina Sky Survey MPS 123290
2004 12 09.40015 07 36 22.36 +23 32 15.6 18.1 R 703 – Catalina Sky Survey MPS 123290
2004 12 09.40821 07 36 22.03 +23 32 20.4 18.5 R 703 – Catalina Sky Survey MPS 123290
2004 12 09.41625 07 36 21.68 +23 32 24.5 18.5 R 703 – Catalina Sky Survey MPS 123290
2004 12 11.49027 07 34 56.85 +23 50 51.4 19.2 V 691 – Steward Observatory, Kitt Peak-Spacewatch MPS 123290
2004 12 11.51584 07 34 55.68 +23 51 05.0 19.1 V 691 – Steward Observatory, Kitt Peak-Spacewatch MPS 123290
2004 12 11.54166 07 34 54.50 +23 51 18.8 19.1 V 691 – Steward Observatory, Kitt Peak-Spacewatch MPS 123290
2004 12 14.34054 07 32 45.23 +24 16 45.9 19.7   704 – Lincoln Laboratory ETS, New Mexico MPS 123290
2004 12 14.35353 07 32 44.51 +24 16 53.0 19.1   704 – Lincoln Laboratory ETS, New Mexico MPS 123290
2004 12 14.36704 07 32 43.81 +24 17 01.3 18.8   704 – Lincoln Laboratory ETS, New Mexico MPS 123290
2004 12 14.38003 07 32 43.20 +24 17 07.6 19.0   704 – Lincoln Laboratory ETS, New Mexico MPS 123290
2004 12 14.38670 07 32 42.97 +24 17 11.7 18.2 R 703 – Catalina Sky Survey MPS 123290
2004 12 14.39417 07 32 42.56 +24 17 16.3 18.6 R 703 – Catalina Sky Survey MPS 123290
2004 12 14.40164 07 32 42.20 +24 17 19.7 18.1 R 703 – Catalina Sky Survey MPS 123290
2004 12 14.40913 07 32 41.81 +24 17 24.0 18.3 R 703 – Catalina Sky Survey MPS 123290
2004 12 21.35751 07 26 13.68 +25 21 57.0 17.8 R 703 – Catalina Sky Survey MPS 123290
2004 12 21.36814 07 26 12.96 +25 22 03.8 18.5 R 703 – Catalina Sky Survey MPS 123290
2004 12 21.37880 07 26 12.27 +25 22 08.9 18.1 R 703 – Catalina Sky Survey MPS 123290
2004 12 21.38951 07 26 11.57 +25 22 14.8 18.5 R 703 – Catalina Sky Survey MPS 123290
2005 01 07.27417 07 06 37.61 +27 49 07.6 18.1   704 – Lincoln Laboratory ETS, New Mexico MPS 124015
2005 01 07.28717 07 06 36.61 +27 49 13.7 18.3   704 – Lincoln Laboratory ETS, New Mexico MPS 124015
2005 01 07.30171 07 06 35.53 +27 49 20.2 18.7   704 – Lincoln Laboratory ETS, New Mexico MPS 124015
2005 01 07.31518 07 06 34.54 +27 49 26.4 18.5   704 – Lincoln Laboratory ETS, New Mexico MPS 124015
2005 01 07.32816 07 06 33.55 +27 49 32.6 18.6   704 – Lincoln Laboratory ETS, New Mexico MPS 124016
2005 01 16.28379 06 56 17.43 +28 51 01.0 18.6   704 – Lincoln Laboratory ETS, New Mexico MPS 124613
2005 01 16.29989 06 56 16.37 +28 51 06.1 18.9   704 – Lincoln Laboratory ETS, New Mexico MPS 124613
2005 01 16.31386 06 56 15.47 +28 51 11.4 18.8   704 – Lincoln Laboratory ETS, New Mexico MPS 124613
2005 01 16.32755 06 56 14.54 +28 51 16.3 18.6   704 – Lincoln Laboratory ETS, New Mexico MPS 124613
2005 01 19.08488 06 53 24.12 +29 07 07.8 19.2 V 691 – Steward Observatory, Kitt Peak-Spacewatch MPS 137900
2005 01 19.11091 06 53 22.54 +29 07 17.4 20.2 V 691 – Steward Observatory, Kitt Peak-Spacewatch MPS 137900
2005 01 19.13696 06 53 20.91 +29 07 25.9 19.2 V 691 – Steward Observatory, Kitt Peak-Spacewatch MPS 137900
2005 01 19.27748 06 53 12.27 +29 08 16.4 18.8   704 – Lincoln Laboratory ETS, New Mexico MPS 124613
2005 01 19.29084 06 53 11.41 +29 08 20.4 19.0   704 – Lincoln Laboratory ETS, New Mexico MPS 124613
2005 01 19.30447 06 53 10.58 +29 08 25.7 18.9   704 – Lincoln Laboratory ETS, New Mexico MPS 124613
2005 01 19.31773 06 53 09.77 +29 08 29.4 18.8   704 – Lincoln Laboratory ETS, New Mexico MPS 124613
2005 01 19.33063 06 53 08.79 +29 08 30.6 19.1   704 – Lincoln Laboratory ETS, New Mexico MPS 124613
